Regional Weather Roundup
Issued by NWS

Home | Current Version | Previous Version | Graphics & Text | Print | Product List | Glossary On
Versions: 1 2 3 4 5 6 7 8 9 10 11 12 13 14 15 16 17 18 19 20 21 22 23 24 25 26 27 28 29 30 31 32 33 34 35 36 37 38 39 40 41 42 43 44 45 46 47 48 49 50
000
ASUS43 KIND 251059
RWRIN

WEATHER ROUNDUP FOR INDIANA
NATIONAL WEATHER SERVICE INDIANAPOLIS IN
700 AM EDT SUN SEP 25 2016

NOTE: "FAIR" INDICATES FEW OR NO CLOUDS BELOW 12,000 FEET WITH NO
SIGNIFICANT WEATHER AND/OR OBSTRUCTIONS TO VISIBILITY.

* - STATION DOES NOT REPORT WEATHER SUCH AS PRECIPITATION OR FOG.

+ - STATION NOT QUALITY CONTROLLED BY THE NATIONAL WEATHER SERVICE.
    USE DATA WITH CAUTION...ESPECIALLY DEWPOINT AND RELATIVE
    HUMIDITY OBSERVATIONS.

INZ001>003-010>013-019-020-251200-
NORTHWEST INDIANA

CITY           SKY/WX    TMP DP  RH WIND       PRES   REMARKS
GARY /AIRPORT/ PTCLDY    64  57  77 SE12      30.11F

$$

LMZ046-743>745-251200-
SOUTHERN LAKE MICHIGAN

STATION/POSITION TIME  TEMP    WIND        PRES    WAVE
                       AIR SEA DIR/SP/G            HT
                 (UTC) (F)     (DEG/KT/KT) (MB)    (FT)
BURNS HARBOR     1000   64     150/ 12/ 22 1020.0S
MICHIGAN CITY    1000   62     120/ 14/ 16   N/A
5NW MICH CITY    1000   63 67  150/ 14/ 17   N/A     1

$$

INZ004-005-014>016-021>024-251200-
NORTH CENTRAL INDIANA

CITY           SKY/WX    TMP DP  RH WIND       PRES   REMARKS
GOSHEN         PTCLDY    58  50  75 SE8       30.17R
PERU/GRISSOM   CLEAR     59  53  81 E5        30.13S
SOUTH BEND     PTCLDY    59  53  80 SE10      30.16F

$$

INZ006>009-017-018-025>027-251200-
NORTHEAST INDIANA

CITY           SKY/WX    TMP DP  RH WIND       PRES   REMARKS
ANGOLA *+        N/A     54  43  66 SE5       30.18S
FORT WAYNE     PTCLDY    55  50  83 E5        30.16F
KENDALLVILLE + CLEAR     54  51  88 SE3       30.18S

$$

INZ028-029-035-036-043>045-051>053-251200-
WEST CENTRAL INDIANA

CITY           SKY/WX    TMP DP  RH WIND       PRES   REMARKS
CRAWFORDSVL +  CLEAR     61  61 100 E5        30.11F
GREENCASTLE +  CLEAR     63  63 100 E5        30.12S
LAFAYETTE      CLEAR     61  59  93 E9        30.11S
TERRE HAUTE    CLEAR     64  63  96 E3        30.10R FOG

$$

INZ030>032-037>040-046>048-054>057-064-065-251200-
CENTRAL INDIANA

CITY           SKY/WX    TMP DP  RH WIND       PRES   REMARKS
COLUMBUS       CLEAR     63  63 100 CALM      30.13
INDIANAPOLIS   CLEAR     64  59  83 E7        30.12S
-EAGLE CREEK   CLEAR     63  59  87 E5        30.13S
MT COMFORT *+  CLEAR     59  57  94 CALM      30.15R
SHELBYVILLE    CLEAR     63  58  83 CALM      30.13R

$$

INZ033-034-041-042-049-050-058-059-251200-
EAST CENTRAL INDIANA

CITY           SKY/WX    TMP DP  RH WIND       PRES   REMARKS
MUNCIE         CLEAR     57  54  89 E5        30.15S

$$

INZ060-061-067>069-081>083-085>088-251200-
SOUTHWEST INDIANA

CITY           SKY/WX    TMP DP  RH WIND       PRES   REMARKS
EVANSVILLE     CLEAR     67  64  90 CALM      30.09R FOG
HUNTINGBURG *+   N/A     64  63  94 CALM      30.09F VSB 1

$$

INZ062-063-066-070>080-084-089>092-251200-
SOUTH CENTRAL AND SOUTHEAST INDIANA

CITY           SKY/WX    TMP DP  RH WIND       PRES   REMARKS
BLOOMINGTON    CLEAR     67  63  87 E3        30.11S
MADISON *+     CLEAR     64  63  94 E3        30.14R

$$




USA.gov is the U.S. government's official web portal to all federal, state and local government web resources and services.